TimeCDT,TemperatureF,Dew PointF,Humidity,Sea Level PressureIn,VisibilityMPH,Wind Direction,Wind SpeedMPH,Gust SpeedMPH,PrecipitationIn,Events,Conditions,WindDirDegrees,DateUTC
12:15 AM,39.2,32.0,75,29.92,3.0,North,-9999.0,-,N/A,,Clear,0,2013-03-31 05:15:00
12:35 AM,39.2,30.2,70,29.92,2.5,North,-9999.0,-,N/A,,Partly Cloudy,0,2013-03-31 05:35:00
12:55 AM,39.2,30.2,70,29.92,0.5,North,-9999.0,-,N/A,,Overcast,0,2013-03-31 05:55:00
1:15 AM,39.2,30.2,70,29.92,0.2,North,-9999.0,-,N/A,,Overcast,0,2013-03-31 06:15:00
1:35 AM,39.2,30.2,70,29.92,0.2,North,-9999.0,-,N/A,,Overcast,0,2013-03-31 06:35:00
1:55 AM,39.2,30.2,70,29.92,0.2,North,-9999.0,-,N/A,,Overcast,0,2013-03-31 06:55:00
2:15 AM,39.2,30.2,70,29.93,0.5,North,-9999.0,-,N/A,,Overcast,0,2013-03-31 07:15:00
2:35 AM,39.2,30.2,70,29.93,0.8,North,-9999.0,-,N/A,,Overcast,0,2013-03-31 07:35:00
2:55 AM,39.2,32.0,75,29.92,0.5,North,-9999.0,-,N/A,,Overcast,0,2013-03-31 07:55:00
3:15 AM,39.2,32.0,75,29.92,1.5,North,-9999.0,-,N/A,,Overcast,0,2013-03-31 08:15:00
3:35 AM,39.2,30.2,70,29.92,2.5,North,-9999.0,-,N/A,,Overcast,0,2013-03-31 08:35:00
3:55 AM,39.2,30.2,70,29.91,2.5,North,-9999.0,-,N/A,,Overcast,0,2013-03-31 08:55:00
4:15 AM,39.2,30.2,70,29.90,3.0,North,-9999.0,-,N/A,,Overcast,0,2013-03-31 09:15:00
4:35 AM,39.2,30.2,70,29.90,3.0,North,-9999.0,-,N/A,,Overcast,0,2013-03-31 09:35:00
4:55 AM,39.2,30.2,70,29.89,4.0,North,-9999.0,-,N/A,,Overcast,0,2013-03-31 09:55:00
5:15 AM,37.4,30.2,75,29.89,5.0,North,-9999.0,-,N/A,,Scattered Clouds,0,2013-03-31 10:15:00
5:35 AM,37.4,28.4,70,29.89,5.0,North,-9999.0,-,N/A,,Clear,0,2013-03-31 10:35:00
5:55 AM,37.4,28.4,70,29.88,5.0,North,-9999.0,-,N/A,,Clear,0,2013-03-31 10:55:00
6:15 AM,37.4,30.2,75,29.89,9.0,North,-9999.0,-,N/A,,Clear,0,2013-03-31 11:15:00
6:35 AM,39.2,30.2,70,29.88,10.0,North,-9999.0,-,N/A,,Clear,0,2013-03-31 11:35:00
6:55 AM,39.2,30.2,70,29.88,10.0,North,-9999.0,-,N/A,,Clear,0,2013-03-31 11:55:00
7:15 AM,39.2,30.2,70,29.89,10.0,North,-9999.0,-,N/A,,Clear,0,2013-03-31 12:15:00
7:35 AM,39.2,30.2,70,29.89,10.0,North,-9999.0,-,N/A,,Clear,0,2013-03-31 12:35:00
7:55 AM,41.0,28.4,61,29.89,10.0,North,-9999.0,-,N/A,,Clear,0,2013-03-31 12:55:00
8:15 AM,42.8,30.2,61,29.89,10.0,North,-9999.0,-,N/A,,Clear,0,2013-03-31 13:15:00
8:35 AM,42.8,30.2,61,29.89,10.0,North,-9999.0,-,N/A,,Clear,0,2013-03-31 13:35:00
8:55 AM,42.8,28.4,57,29.89,10.0,North,-9999.0,-,N/A,,Clear,0,2013-03-31 13:55:00
9:15 AM,41.0,28.4,61,29.90,10.0,North,-9999.0,-,N/A,,Mostly Cloudy,0,2013-03-31 14:15:00
9:35 AM,39.2,26.6,61,29.90,10.0,North,-9999.0,-,N/A,,Overcast,0,2013-03-31 14:35:00
9:55 AM,41.0,26.6,57,29.91,10.0,North,-9999.0,-,N/A,,Overcast,0,2013-03-31 14:55:00
10:15 AM,39.2,26.6,61,29.93,10.0,North,-9999.0,-,N/A,,Overcast,0,2013-03-31 15:15:00
10:35 AM,39.2,26.6,61,29.93,9.0,North,-9999.0,-,N/A,,Overcast,0,2013-03-31 15:35:00
10:55 AM,39.2,26.6,61,29.94,10.0,North,-9999.0,-,N/A,,Overcast,0,2013-03-31 15:55:00
11:15 AM,39.2,26.6,61,29.95,10.0,North,-9999.0,-,N/A,,Overcast,0,2013-03-31 16:15:00
11:35 AM,42.8,28.4,57,29.94,10.0,North,-9999.0,-,N/A,,Mostly Cloudy,0,2013-03-31 16:35:00
11:55 AM,42.8,26.6,53,29.95,10.0,North,-9999.0,-,N/A,,Mostly Cloudy,0,2013-03-31 16:55:00
12:15 PM,42.8,24.8,49,29.96,10.0,North,-9999.0,-,N/A,,Mostly Cloudy,0,2013-03-31 17:15:00
12:35 PM,44.6,21.2,39,29.96,10.0,North,-9999.0,-,N/A,,Mostly Cloudy,0,2013-03-31 17:35:00
12:55 PM,44.6,23.0,43,29.97,10.0,North,-9999.0,-,N/A,,Mostly Cloudy,0,2013-03-31 17:55:00
1:15 PM,44.6,23.0,43,29.97,10.0,North,-9999.0,-,N/A,,Scattered Clouds,0,2013-03-31 18:15:00
1:35 PM,44.6,23.0,43,29.97,10.0,North,-9999.0,-,N/A,,Mostly Cloudy,0,2013-03-31 18:35:00
1:55 PM,42.8,21.2,42,29.97,10.0,North,-9999.0,-,N/A,,Mostly Cloudy,0,2013-03-31 18:55:00
2:15 PM,44.6,21.2,39,29.97,10.0,North,-9999.0,-,N/A,,Mostly Cloudy,0,2013-03-31 19:15:00
2:35 PM,42.8,21.2,42,29.97,10.0,North,-9999.0,-,N/A,,Overcast,0,2013-03-31 19:35:00
2:55 PM,44.6,21.2,39,29.97,10.0,North,-9999.0,-,N/A,,Mostly Cloudy,0,2013-03-31 19:55:00
3:15 PM,42.8,19.4,39,29.98,10.0,North,-9999.0,-,N/A,,Scattered Clouds,0,2013-03-31 20:15:00
3:35 PM,42.8,19.4,39,29.98,10.0,North,-9999.0,-,N/A,,Scattered Clouds,0,2013-03-31 20:35:00
3:55 PM,42.8,19.4,39,29.98,10.0,North,-9999.0,-,N/A,,Mostly Cloudy,0,2013-03-31 20:55:00
4:15 PM,42.8,19.4,39,29.98,10.0,North,-9999.0,-,N/A,,Partly Cloudy,0,2013-03-31 21:15:00
4:35 PM,42.8,19.4,39,29.99,10.0,North,-9999.0,-,N/A,,Partly Cloudy,0,2013-03-31 21:35:00
4:55 PM,41.0,17.6,39,29.99,10.0,North,-9999.0,-,N/A,,Partly Cloudy,0,2013-03-31 21:55:00
5:15 PM,41.0,15.8,36,30.00,10.0,North,-9999.0,-,N/A,,Scattered Clouds,0,2013-03-31 22:15:00
5:35 PM,39.2,17.6,42,30.01,10.0,North,-9999.0,-,N/A,,Mostly Cloudy,0,2013-03-31 22:35:00
5:55 PM,39.2,15.8,39,30.01,10.0,North,-9999.0,-,N/A,,Mostly Cloudy,0,2013-03-31 22:55:00
6:15 PM,37.4,17.6,45,30.02,10.0,North,-9999.0,-,N/A,,Overcast,0,2013-03-31 23:15:00
6:35 PM,37.4,17.6,45,30.03,10.0,North,-9999.0,-,N/A,,Overcast,0,2013-03-31 23:35:00
6:55 PM,35.6,19.4,52,30.03,10.0,North,-9999.0,-,N/A,,Mostly Cloudy,0,2013-03-31 23:55:00
7:15 PM,35.6,17.6,48,30.04,10.0,North,-9999.0,-,N/A,,Mostly Cloudy,0,2013-04-01 00:15:00
7:35 PM,33.8,17.6,52,30.04,10.0,North,-9999.0,-,N/A,,Mostly Cloudy,0,2013-04-01 00:35:00
7:55 PM,33.8,15.8,48,30.05,10.0,North,-9999.0,-,N/A,,Mostly Cloudy,0,2013-04-01 00:55:00
8:15 PM,33.8,15.8,48,30.06,10.0,North,-9999.0,-,N/A,,Mostly Cloudy,0,2013-04-01 01:15:00
8:35 PM,32.0,15.8,51,30.07,10.0,North,-9999.0,-,N/A,,Partly Cloudy,0,2013-04-01 01:35:00
9:15 PM,30.2,15.8,55,30.09,10.0,North,-9999.0,-,N/A,,Clear,0,2013-04-01 02:15:00
9:35 PM,30.2,15.8,55,30.10,10.0,North,-9999.0,-,N/A,,Clear,0,2013-04-01 02:35:00
9:55 PM,30.2,15.8,55,30.11,10.0,North,-9999.0,-,N/A,,Clear,0,2013-04-01 02:55:00
10:15 PM,30.2,15.8,55,30.11,10.0,North,-9999.0,-,N/A,,Clear,0,2013-04-01 03:15:00
10:35 PM,28.4,15.8,59,30.12,10.0,North,-9999.0,-,N/A,,Clear,0,2013-04-01 03:35:00
10:55 PM,28.4,15.8,59,30.13,10.0,North,-9999.0,-,N/A,,Clear,0,2013-04-01 03:55:00
11:15 PM,28.4,14.0,55,30.13,10.0,North,-9999.0,-,N/A,,Clear,0,2013-04-01 04:15:00
11:35 PM,28.4,14.0,55,30.14,10.0,North,-9999.0,-,N/A,,Clear,0,2013-04-01 04:35:00